Lakeville, MN

2:48 AM CDT on April 25, 2017 (GMT -0500)
Airlake

Weather History for KLVN - March, 2014

Change the Weather History Date:

Wednesday, March 5, 2014

  Actual Average Record
Temperature  
Mean Temperature 14 °F -  
Max Temperature 21 °F 34 °F 58 °F (1983)
Min Temperature 6 °F 17 °F -14 °F (2015)
Degree Days  
Heating Degree Days 52    
Moisture  
Dew Point 7 °F    
Average Humidity 78    
Maximum Humidity 92    
Minimum Humidity 58    
Precipitation  
Precipitation 0.00 in - - ()
Sea Level Pressure  
Sea Level Pressure 30.37 in    
Wind  
Wind Speed 5 mph (East)    
Max Wind Speed 13 mph    
Max Gust Speed -    
Visibility 9 miles    
Events Snow    
Averages and records for this station are not official NWS values.
T = Trace of Precipitation, MM = Missing Value Source: NWS Daily Summary

Daily Weather History Graph

Daily Weather History Graph

Search for Another Location

Airport or City:

Trip Planner

Search our weather history database for the weather conditions in past years. The results will help you decide how hot, cold, wet, or windy it might be!

Date:

Astronomy

Mar. 05, 2014 Rise Set
Actual Time 6:43 AM CST 6:06 PM CST
Civil Twilight 6:14 AM CST 6:35 PM CST
Nautical Twilight 5:40 AM CST 7:09 PM CST
Astronomical Twilight 5:06 AM CST 7:43 PM CST
Moon 8:57 AM CST (3/5) 11:28 PM CST (3/5)
Length of Visible Light 12h 21m
Length of Day
11h 22m
Waxing Crescent, 23% of the Moon is Illuminated
Mar 5
Waxing Crescent
Mar 8
First Quarter
Mar 16
Full
Mar 23
Last Quarter
Mar 30
New

Hourly Weather History & Observations

Time (CST) Temp. Windchill Dew Point Humidity Pressure Visibility Wind Dir Wind Speed Gust Speed Precip Events Conditions
12:19 AM 12.2 °F 6.1 °F 10.4 °F 92% 30.29 in 2.0 mi ENE 3.5 mph - N/A Snow Light Snow
12:39 AM 12.2 °F 2.9 °F 10.4 °F 92% 30.29 in 1.5 mi ENE 5.8 mph - 0.01 in Snow Light Snow
12:59 AM 12.2 °F 4.3 °F 10.4 °F 92% 30.30 in 2.0 mi ENE 4.6 mph - N/A Snow Light Snow
1:20 AM 12.2 °F 2.9 °F 10.4 °F 92% 30.31 in 1.8 mi ENE 5.8 mph - N/A Snow Light Snow
1:39 AM 12.2 °F 2.9 °F 10.4 °F 92% 30.31 in 1.8 mi ENE 5.8 mph - N/A Snow Light Snow
2:00 AM 12.2 °F 4.3 °F 10.4 °F 92% 30.31 in 2.0 mi ENE 4.6 mph - N/A Snow Light Snow
2:19 AM 12.2 °F 4.3 °F 10.4 °F 92% 30.31 in 3.0 mi ENE 4.6 mph - N/A Snow Light Snow
2:39 AM 12.2 °F 6.1 °F 10.4 °F 92% 30.31 in 3.0 mi ENE 3.5 mph - N/A Snow Light Snow
2:59 AM 12.2 °F 4.3 °F 10.4 °F 92% 30.31 in 4.0 mi ENE 4.6 mph - N/A Snow Light Snow
3:19 AM 12.2 °F - 10.4 °F 92% 30.32 in 4.0 mi Calm Calm - N/A Snow Light Snow
3:40 AM 12.2 °F 6.1 °F 10.4 °F 92% 30.32 in 4.0 mi NE 3.5 mph - N/A Snow Light Snow
3:59 AM 12.2 °F 4.3 °F 10.4 °F 92% 30.32 in 4.0 mi NE 4.6 mph - N/A Snow Light Snow
4:19 AM 10.4 °F -0.4 °F 8.6 °F 92% 30.33 in 4.0 mi NE 6.9 mph - N/A Snow Light Snow
4:40 AM 10.4 °F -0.4 °F 8.6 °F 92% 30.32 in 5.0 mi NE 6.9 mph - N/A   Scattered Clouds
4:59 AM 10.4 °F 0.8 °F 8.6 °F 92% 30.33 in 7.0 mi NE 5.8 mph - N/A   Clear
5:19 AM 8.6 °F -2.6 °F 6.8 °F 92% 30.34 in 7.0 mi ENE 6.9 mph - N/A   Clear
5:39 AM 8.6 °F 0.1 °F 6.8 °F 92% 30.34 in 10.0 mi ENE 4.6 mph - N/A   Clear
5:59 AM 6.8 °F -0.1 °F 3.2 °F 85% 30.35 in 10.0 mi NE 3.5 mph - N/A   Clear
6:20 AM 6.8 °F -0.1 °F 3.2 °F 85% 30.36 in 10.0 mi ENE 3.5 mph - N/A   Clear
6:39 AM 6.8 °F - 3.2 °F 85% 30.37 in 10.0 mi Calm Calm - N/A   Clear
6:59 AM 6.8 °F -0.1 °F 3.2 °F 85% 30.38 in 10.0 mi ENE 3.5 mph - N/A   Mostly Cloudy
7:19 AM 8.6 °F 0.1 °F 3.2 °F 79% 30.38 in 10.0 mi ENE 4.6 mph - N/A   Overcast
7:39 AM 10.4 °F -0.4 °F 3.2 °F 73% 30.39 in 10.0 mi East 6.9 mph - N/A   Mostly Cloudy
8:00 AM 8.6 °F -3.7 °F 3.2 °F 79% 30.39 in 10.0 mi East 8.1 mph - N/A   Clear
8:19 AM 8.6 °F -3.7 °F 3.2 °F 79% 30.40 in 10.0 mi East 8.1 mph - N/A   Clear
8:39 AM 8.6 °F -2.6 °F 3.2 °F 79% 30.41 in 10.0 mi East 6.9 mph - N/A   Clear
9:00 AM 10.4 °F 0.8 °F 3.2 °F 73% 30.41 in 10.0 mi ENE 5.8 mph - N/A   Clear
9:19 AM 12.2 °F 0.7 °F 5.0 °F 73% 30.42 in 10.0 mi ENE 8.1 mph - N/A   Clear
9:39 AM 14.0 °F 3.9 °F 6.8 °F 73% 30.43 in 10.0 mi ENE 6.9 mph - N/A   Clear
9:59 AM 14.0 °F 5.1 °F 6.8 °F 73% 30.43 in 10.0 mi ENE 5.8 mph - N/A   Clear
10:19 AM 15.8 °F 4.2 °F 6.8 °F 68% 30.43 in 10.0 mi East 9.2 mph - N/A   Clear
10:40 AM 15.8 °F 6.1 °F 6.8 °F 68% 30.43 in 10.0 mi ENE 6.9 mph - N/A   Clear
10:59 AM 17.6 °F 8.2 °F 6.8 °F 63% 30.43 in 10.0 mi ENE 6.9 mph - N/A   Clear
11:20 AM 17.6 °F 7.3 °F 8.6 °F 68% 30.42 in 10.0 mi East 8.1 mph - N/A   Clear
11:39 AM 17.6 °F 8.2 °F 8.6 °F 68% 30.42 in 10.0 mi East 6.9 mph - N/A   Clear
11:59 AM 19.4 °F 8.6 °F 8.6 °F 63% 30.42 in 10.0 mi East 9.2 mph - N/A   Clear
12:19 PM 19.4 °F 7.9 °F 8.6 °F 63% 30.41 in 10.0 mi ESE 10.4 mph - N/A   Clear
12:39 PM 19.4 °F 6.6 °F 8.6 °F 63% 30.41 in 10.0 mi East 12.7 mph - N/A   Clear
1:00 PM 21.2 °F 10.1 °F 8.6 °F 58% 30.40 in 10.0 mi ESE 10.4 mph - N/A   Clear
1:19 PM 21.2 °F 10.1 °F 8.6 °F 58% 30.39 in 10.0 mi SSE 10.4 mph - N/A   Clear
1:39 PM 21.2 °F 10.1 °F 8.6 °F 58% 30.39 in 10.0 mi SE 10.4 mph - N/A   Clear
1:59 PM 21.2 °F 10.1 °F 8.6 °F 58% 30.39 in 10.0 mi ESE 10.4 mph - N/A   Clear
2:19 PM 21.2 °F 11.7 °F 8.6 °F 58% 30.39 in 10.0 mi ESE 8.1 mph - N/A   Clear
2:39 PM 21.2 °F 11.7 °F 10.4 °F 63% 30.40 in 10.0 mi ESE 8.1 mph - N/A   Clear
2:59 PM 21.2 °F 10.9 °F 8.6 °F 58% 30.39 in 10.0 mi ESE 9.2 mph - N/A   Clear
3:19 PM 21.2 °F 11.7 °F 10.4 °F 63% 30.39 in 10.0 mi SE 8.1 mph - N/A   Clear
3:39 PM 19.4 °F 8.6 °F 8.6 °F 63% 30.39 in 10.0 mi SE 9.2 mph - N/A   Clear
3:59 PM 19.4 °F 9.5 °F 8.6 °F 63% 30.38 in 10.0 mi ESE 8.1 mph - N/A   Clear
4:19 PM 19.4 °F 8.6 °F 8.6 °F 63% 30.37 in 10.0 mi SE 9.2 mph - N/A   Clear
4:40 PM 19.4 °F 9.5 °F 8.6 °F 63% 30.37 in 10.0 mi SE 8.1 mph - N/A   Clear
4:59 PM 19.4 °F 12.8 °F 8.6 °F 63% 30.37 in 10.0 mi SE 4.6 mph - N/A   Clear
5:19 PM 19.4 °F 14.3 °F 8.6 °F 63% 30.37 in 10.0 mi SSE 3.5 mph - N/A   Clear
5:39 PM 17.6 °F 12.3 °F 8.6 °F 68% 30.37 in 10.0 mi SE 3.5 mph - N/A   Clear
5:59 PM 15.8 °F 10.2 °F 8.6 °F 73% 30.36 in 10.0 mi SE 3.5 mph - N/A   Clear
6:20 PM 15.8 °F - 8.6 °F 73% 30.37 in 10.0 mi Calm Calm - N/A   Clear
6:39 PM 15.8 °F - 8.6 °F 73% 30.38 in 10.0 mi Calm Calm - N/A   Clear
6:59 PM 14.0 °F - 8.6 °F 79% 30.38 in 10.0 mi Calm Calm - N/A   Clear
7:20 PM 12.2 °F 6.1 °F 8.6 °F 85% 30.36 in 10.0 mi SE 3.5 mph - N/A   Clear
7:39 PM 10.4 °F 4.0 °F 6.8 °F 85% 30.37 in 10.0 mi SE 3.5 mph - N/A   Clear
7:59 PM 10.4 °F 4.0 °F 6.8 °F 85% 30.36 in 10.0 mi SSE 3.5 mph - N/A   Clear
8:19 PM 10.4 °F - 6.8 °F 85% 30.36 in 10.0 mi Calm Calm - N/A   Clear
8:39 PM 8.6 °F - 6.8 °F 92% 30.35 in 10.0 mi Calm Calm - N/A   Clear
8:59 PM 8.6 °F - 6.8 °F 92% 30.35 in 10.0 mi Calm Calm - N/A   Clear
9:19 PM 8.6 °F 0.1 °F 5.0 °F 85% 30.35 in 10.0 mi SE 4.6 mph - N/A   Clear
9:39 PM 8.6 °F 2.0 °F 6.8 °F 92% 30.35 in 10.0 mi SSE 3.5 mph - N/A   Clear
10:00 PM 8.6 °F 2.0 °F 5.0 °F 85% 30.34 in 10.0 mi SSE 3.5 mph - N/A   Clear
10:19 PM 8.6 °F 2.0 °F 5.0 °F 85% 30.34 in 10.0 mi SSE 3.5 mph - N/A   Clear
10:39 PM 8.6 °F 2.0 °F 5.0 °F 85% 30.34 in 10.0 mi SSE 3.5 mph - N/A   Clear
10:59 PM 6.8 °F -3.5 °F 3.2 °F 85% 30.34 in 10.0 mi SE 5.8 mph - N/A   Clear
11:19 PM 8.6 °F 0.1 °F 3.2 °F 79% 30.33 in 10.0 mi SSE 4.6 mph - N/A   Clear
11:40 PM 8.6 °F 0.1 °F 3.2 °F 79% 30.34 in 10.0 mi SSE 4.6 mph - N/A   Clear
11:59 PM 6.8 °F - 3.2 °F 85% 30.35 in 10.0 mi Calm Calm - N/A   Clear